Track LEMUR 2 ALEXANDER now! 10-day predictions LEMUR 2 ALEXANDER is classified as:
1 43559U 18046F 22220.83164086 .00032699 00000-0 55584-3 0 9998 2 43559 51.6367 265.0418 0004688 264.1505 95.8950 15.51124259227474